Location: Beekmeers
(50.8953°N, 3.6968°E)
Time: 10:17:46
(UTC+00:00)

Cosmos 2082 Rocket - Pass Details

Date: 23 May 2024
Orbit: 832 x 853 km, 71.0° (Epoch: 14 June)

Event Time Altitude Azimuth Distance (km) Brightness Sun altitude
Exits shadow 01:48:51 14° 242° (WSW) 2,240 3.9 -13.2°
Maximum altitude 01:53:34 43° 310° (NW) 1,194 3.1 -12.8°
Drops below altitude 10° 01:59:00 10° 21° (NNE) 2,493 6.1 -12.4°
Sets 02:01:36 0° 29° (NNE) 3,430 7.5 -12.1°
